Location: Forest
(37.3641°N, 79.2902°W)
Time: 01:21:37
(UTC+00:00)

Hubble Space Telescope - Pass Details

Date: 25 January 2026
Orbit: 478 x 480 km, 28.5° (Epoch: 10 February)

Event Time Altitude Azimuth Distance (km) Brightness Sun altitude
Rises 00:43:44 0° 240° (WSW) 2,513 5.2 -25.9°
Reaches altitude 10° 00:46:20 10° 223° (SW) 1,637 3.8 -26.4°
Enters shadow 00:47:44 16° 204° (SSW) 1,290 3.0 -26.7°
